Time,TemperatureF,DewpointF,PressureIn,WindDirection,WindDirectionDegrees,WindSpeedMPH,WindSpeedGustMPH,Humidity,HourlyPrecipIn,Conditions,Clouds,dailyrainin,SoftwareType,DateUTC
2013-05-02 00:02:00,33.1,15.5,30.89,WSW,246,1.0,12.0,48,0.00,,,0.00,Wunderground v.1.15,2013-05-02 06:02:00,
2013-05-02 00:08:00,32.9,15.8,30.89,WSW,246,1.0,12.0,49,0.00,,,0.00,Wunderground v.1.15,2013-05-02 06:08:00,
2013-05-02 00:14:00,32.4,15.8,30.89,WSW,255,1.0,12.0,50,0.00,,,0.00,Wunderground v.1.15,2013-05-02 06:14:00,
2013-05-02 00:20:00,32.3,15.7,30.89,WSW,256,2.0,2.0,50,0.00,,,0.00,Wunderground v.1.15,2013-05-02 06:20:00,
2013-05-02 00:26:00,32.0,15.9,30.89,WSW,256,1.0,12.0,51,0.00,,,0.00,Wunderground v.1.15,2013-05-02 06:26:00,
2013-05-02 00:32:00,31.6,15.5,30.90,WSW,256,1.0,12.0,51,0.00,,,0.00,Wunderground v.1.15,2013-05-02 06:32:00,
2013-05-02 00:38:00,31.6,15.5,30.90,WSW,255,1.0,12.0,51,0.00,,,0.00,Wunderground v.1.15,2013-05-02 06:38:00,
2013-05-02 00:44:00,31.9,15.3,30.89,WSW,256,2.0,12.0,50,0.00,,,0.00,Wunderground v.1.15,2013-05-02 06:44:00,
2013-05-02 00:50:00,32.4,15.3,30.89,WSW,252,2.0,12.0,49,0.00,,,0.00,Wunderground v.1.15,2013-05-02 06:50:00,
2013-05-02 00:56:00,32.5,15.0,30.89,WSW,251,2.0,12.0,48,0.00,,,0.00,Wunderground v.1.15,2013-05-02 06:56:00,
2013-05-02 01:02:00,32.9,15.3,30.90,WSW,251,2.0,12.0,48,0.00,,,0.00,Wunderground v.1.15,2013-05-02 07:02:00,
2013-05-02 01:08:00,33.0,15.4,30.90,WSW,253,3.0,12.0,48,0.00,,,0.00,Wunderground v.1.15,2013-05-02 07:08:00,
2013-05-02 01:14:00,32.6,16.0,30.90,WSW,254,2.0,12.0,50,0.00,,,0.00,Wunderground v.1.15,2013-05-02 07:14:00,
2013-05-02 01:20:00,31.9,15.8,30.90,WSW,254,1.0,12.0,51,0.00,,,0.00,Wunderground v.1.15,2013-05-02 07:20:00,
2013-05-02 01:26:00,31.3,16.1,30.89,WSW,254,1.0,12.0,53,0.00,,,0.00,Wunderground v.1.15,2013-05-02 07:26:00,
2013-05-02 01:32:00,30.9,16.6,30.89,WSW,254,2.0,12.0,55,0.00,,,0.00,Wunderground v.1.15,2013-05-02 07:32:00,
2013-05-02 01:38:00,30.7,16.4,30.89,WSW,254,2.0,12.0,55,0.00,,,0.00,Wunderground v.1.15,2013-05-02 07:38:00,
2013-05-02 01:44:00,31.2,16.0,30.89,WSW,255,2.0,12.0,53,0.00,,,0.00,Wunderground v.1.15,2013-05-02 07:44:00,
2013-05-02 01:50:00,31.5,16.3,30.89,WSW,256,2.0,12.0,53,0.00,,,0.00,Wunderground v.1.15,2013-05-02 07:50:00,
2013-05-02 01:56:00,31.3,16.6,30.89,WSW,256,2.0,12.0,54,0.00,,,0.00,Wunderground v.1.15,2013-05-02 07:56:00,
2013-05-02 02:02:00,30.9,16.2,30.89,WSW,256,2.0,12.0,54,0.00,,,0.00,Wunderground v.1.15,2013-05-02 08:02:00,
2013-05-02 02:08:00,30.7,16.4,30.89,WSW,256,2.0,12.0,55,0.00,,,0.00,Wunderground v.1.15,2013-05-02 08:08:00,
2013-05-02 02:14:00,31.0,16.3,30.89,WSW,256,3.0,12.0,54,0.00,,,0.00,Wunderground v.1.15,2013-05-02 08:14:00,
2013-05-02 02:20:00,31.1,16.4,30.89,WSW,256,2.0,12.0,54,0.00,,,0.00,Wunderground v.1.15,2013-05-02 08:20:00,
2013-05-02 02:26:00,30.9,16.2,30.89,WSW,258,2.0,12.0,54,0.00,,,0.00,Wunderground v.1.15,2013-05-02 08:26:00,
2013-05-02 02:32:00,30.7,16.0,30.89,WSW,258,2.0,12.0,54,0.00,,,0.00,Wunderground v.1.15,2013-05-02 08:32:00,
2013-05-02 02:38:00,30.4,16.1,30.89,WSW,258,2.0,12.0,55,0.00,,,0.00,Wunderground v.1.15,2013-05-02 08:38:00,
2013-05-02 02:44:00,30.3,16.0,30.89,WSW,258,1.0,12.0,55,0.00,,,0.00,Wunderground v.1.15,2013-05-02 08:44:00,
2013-05-02 02:50:00,30.1,16.3,30.89,WSW,258,1.0,12.0,56,0.00,,,0.00,Wunderground v.1.15,2013-05-02 08:50:00,
2013-05-02 02:56:00,29.9,16.1,30.89,WSW,256,2.0,12.0,56,0.00,,,0.00,Wunderground v.1.15,2013-05-02 08:56:00,
2013-05-02 03:02:00,30.2,16.4,30.89,WSW,255,3.0,12.0,56,0.00,,,0.00,Wunderground v.1.15,2013-05-02 09:02:00,
2013-05-02 03:08:00,30.9,16.2,30.90,WSW,254,3.0,12.0,54,0.00,,,0.00,Wunderground v.1.15,2013-05-02 09:08:00,
2013-05-02 03:14:00,31.2,16.0,30.90,WSW,258,3.0,12.0,53,0.00,,,0.00,Wunderground v.1.15,2013-05-02 09:14:00,
2013-05-02 03:20:00,31.2,16.0,30.90,West,260,2.0,12.0,53,0.00,,,0.00,Wunderground v.1.15,2013-05-02 09:20:00,
2013-05-02 03:26:00,31.4,15.3,30.90,West,260,3.0,12.0,51,0.00,,,0.00,Wunderground v.1.15,2013-05-02 09:26:00,
2013-05-02 03:32:00,31.5,15.4,30.90,West,260,3.0,4.0,51,0.00,,,0.00,Wunderground v.1.15,2013-05-02 09:32:00,
2013-05-02 03:38:00,31.3,15.2,30.90,West,261,3.0,12.0,51,0.00,,,0.00,Wunderground v.1.15,2013-05-02 09:38:00,
2013-05-02 03:44:00,31.1,15.5,30.90,West,262,3.0,12.0,52,0.00,,,0.00,Wunderground v.1.15,2013-05-02 09:44:00,
2013-05-02 03:50:00,30.7,15.6,30.90,West,262,2.0,2.0,53,0.00,,,0.00,Wunderground v.1.15,2013-05-02 09:50:00,
2013-05-02 03:56:00,30.2,16.0,30.90,West,262,2.0,12.0,55,0.00,,,0.00,Wunderground v.1.15,2013-05-02 09:56:00,
2013-05-02 04:02:00,29.4,15.6,30.90,West,262,2.0,12.0,56,0.00,,,0.00,Wunderground v.1.15,2013-05-02 10:02:00,
2013-05-02 04:08:00,28.9,15.6,30.90,West,264,2.0,12.0,57,0.00,,,0.00,Wunderground v.1.15,2013-05-02 10:08:00,
2013-05-02 04:14:00,29.3,15.9,30.90,West,260,3.0,12.0,57,0.00,,,0.00,Wunderground v.1.15,2013-05-02 10:14:00,
2013-05-02 04:20:00,29.9,15.7,30.90,West,262,3.0,12.0,55,0.00,,,0.00,Wunderground v.1.15,2013-05-02 10:20:00,
2013-05-02 04:26:00,30.1,15.9,30.90,West,262,3.0,12.0,55,0.00,,,0.00,Wunderground v.1.15,2013-05-02 10:26:00,
2013-05-02 04:32:00,29.8,15.6,30.90,West,264,2.0,12.0,55,0.00,,,0.00,Wunderground v.1.15,2013-05-02 10:32:00,
2013-05-02 04:38:00,29.5,15.7,30.90,West,264,2.0,12.0,56,0.00,,,0.00,Wunderground v.1.15,2013-05-02 10:38:00,
2013-05-02 04:44:00,29.0,15.7,30.90,West,264,1.0,12.0,57,0.00,,,0.00,Wunderground v.1.15,2013-05-02 10:44:00,
2013-05-02 04:50:00,28.9,15.6,30.91,West,264,2.0,2.0,57,0.00,,,0.00,Wunderground v.1.15,2013-05-02 10:50:00,
2013-05-02 04:56:00,28.8,15.5,30.91,West,264,2.0,12.0,57,0.00,,,0.00,Wunderground v.1.15,2013-05-02 10:56:00,
2013-05-02 05:02:00,28.8,15.5,30.91,West,263,2.0,12.0,57,0.00,,,0.00,Wunderground v.1.15,2013-05-02 11:02:00,
2013-05-02 05:08:00,28.8,15.5,30.91,West,262,3.0,12.0,57,0.00,,,0.00,Wunderground v.1.15,2013-05-02 11:08:00,
2013-05-02 05:14:00,29.2,15.4,30.91,West,262,3.0,12.0,56,0.00,,,0.00,Wunderground v.1.15,2013-05-02 11:14:00,
2013-05-02 05:20:00,29.5,15.3,30.91,West,262,2.0,2.0,55,0.00,,,0.00,Wunderground v.1.15,2013-05-02 11:20:00,
2013-05-02 05:26:00,29.6,15.4,30.91,West,262,2.0,12.0,55,0.00,,,0.00,Wunderground v.1.15,2013-05-02 11:26:00,
2013-05-02 05:32:00,29.3,15.1,30.91,West,261,2.0,12.0,55,0.00,,,0.00,Wunderground v.1.15,2013-05-02 11:32:00,
2013-05-02 05:38:00,29.2,15.4,30.91,West,261,2.0,12.0,56,0.00,,,0.00,Wunderground v.1.15,2013-05-02 11:38:00,
2013-05-02 05:44:00,30.1,15.9,30.91,West,259,3.0,12.0,55,0.00,,,0.00,Wunderground v.1.15,2013-05-02 11:44:00,
2013-05-02 05:50:00,30.0,15.3,30.92,West,259,3.0,12.0,54,0.00,,,0.00,Wunderground v.1.15,2013-05-02 11:50:00,
2013-05-02 05:56:00,30.5,15.8,30.92,West,260,3.0,12.0,54,0.00,,,0.00,Wunderground v.1.15,2013-05-02 11:56:00,
2013-05-02 06:02:00,30.6,15.9,30.92,West,260,3.0,12.0,54,0.00,,,0.00,Wunderground v.1.15,2013-05-02 12:02:00,
2013-05-02 06:08:00,31.1,16.4,30.92,WSW,255,3.0,12.0,54,0.00,,,0.00,Wunderground v.1.15,2013-05-02 12:08:00,
2013-05-02 06:14:00,31.6,16.8,30.92,West,260,4.0,12.0,54,0.00,,,0.00,Wunderground v.1.15,2013-05-02 12:14:00,
2013-05-02 06:20:00,31.9,17.5,30.92,West,262,4.0,4.0,55,0.00,,,0.00,Wunderground v.1.15,2013-05-02 12:20:00,
2013-05-02 06:26:00,32.2,18.2,30.92,West,269,3.0,12.0,56,0.00,,,0.00,Wunderground v.1.15,2013-05-02 12:26:00,
2013-05-02 06:32:00,32.6,19.0,30.92,West,269,2.0,12.0,57,0.00,,,0.00,Wunderground v.1.15,2013-05-02 12:32:00,
2013-05-02 06:38:00,32.8,18.8,30.92,West,270,2.0,12.0,56,0.00,,,0.00,Wunderground v.1.15,2013-05-02 12:38:00,
2013-05-02 06:44:00,33.0,18.6,30.92,West,270,2.0,12.0,55,0.00,,,0.00,Wunderground v.1.15,2013-05-02 12:44:00,
2013-05-02 06:50:00,33.2,19.2,30.92,West,269,1.0,12.0,56,0.00,,,0.00,Wunderground v.1.15,2013-05-02 12:50:00,
2013-05-02 06:56:00,33.5,19.9,30.93,West,270,1.0,12.0,57,0.00,,,0.00,Wunderground v.1.15,2013-05-02 12:56:00,
2013-05-02 07:02:00,33.8,18.9,30.93,NW,305,1.0,12.0,54,0.00,,,0.00,Wunderground v.1.15,2013-05-02 13:02:00,
2013-05-02 07:08:00,34.0,19.5,30.93,NW,306,1.0,12.0,55,0.00,,,0.00,Wunderground v.1.15,2013-05-02 13:08:00,
2013-05-02 07:14:00,34.3,19.4,30.93,NW,305,1.0,12.0,54,0.00,,,0.00,Wunderground v.1.15,2013-05-02 13:14:00,
2013-05-02 07:20:00,34.8,20.3,30.93,NW,306,1.0,1.0,55,0.00,,,0.00,Wunderground v.1.15,2013-05-02 13:20:00,
2013-05-02 07:26:00,35.5,21.3,30.93,NW,305,0.0,12.0,56,0.00,,,0.00,Wunderground v.1.15,2013-05-02 13:26:00,
2013-05-02 07:32:00,36.2,22.4,30.93,NW,306,0.0,12.0,57,0.00,,,0.00,Wunderground v.1.15,2013-05-02 13:32:00,
2013-05-02 07:38:00,37.4,23.5,30.93,NW,306,1.0,12.0,57,0.00,,,0.00,Wunderground v.1.15,2013-05-02 13:38:00,
2013-05-02 07:44:00,38.6,24.7,30.93,West,268,2.0,12.0,57,0.00,,,0.00,Wunderground v.1.15,2013-05-02 13:44:00,
2013-05-02 07:50:00,39.7,24.0,30.93,West,260,3.0,12.0,53,0.00,,,0.00,Wunderground v.1.15,2013-05-02 13:50:00,
2013-05-02 07:56:00,40.6,24.8,30.93,West,279,4.0,12.0,53,0.00,,,0.00,Wunderground v.1.15,2013-05-02 13:56:00,
2013-05-02 08:02:00,41.3,24.5,30.93,West,267,3.0,12.0,51,0.00,,,0.00,Wunderground v.1.15,2013-05-02 14:02:00,
2013-05-02 08:08:00,42.2,25.3,30.92,WSW,247,3.0,12.0,51,0.00,,,0.00,Wunderground v.1.15,2013-05-02 14:08:00,
2013-05-02 08:14:00,42.5,24.2,30.92,West,262,3.0,12.0,48,0.00,,,0.00,Wunderground v.1.15,2013-05-02 14:14:00,
2013-05-02 08:20:00,42.8,23.9,30.92,West,262,4.0,12.0,47,0.00,,,0.00,Wunderground v.1.15,2013-05-02 14:20:00,
2013-05-02 08:26:00,43.4,24.5,30.92,West,274,4.0,12.0,47,0.00,,,0.00,Wunderground v.1.15,2013-05-02 14:26:00,
2013-05-02 08:32:00,44.1,24.6,30.92,WSW,258,3.0,12.0,46,0.00,,,0.00,Wunderground v.1.15,2013-05-02 14:32:00,
2013-05-02 08:38:00,44.8,23.6,30.92,West,272,2.0,12.0,43,0.00,,,0.00,Wunderground v.1.15,2013-05-02 14:38:00,
2013-05-02 08:44:00,45.2,23.4,30.92,West,266,2.0,12.0,42,0.00,,,0.00,Wunderground v.1.15,2013-05-02 14:44:00,
2013-05-02 08:50:00,45.8,24.5,30.91,WSW,237,1.0,12.0,43,0.00,,,0.00,Wunderground v.1.15,2013-05-02 14:50:00,
2013-05-02 08:56:00,46.2,23.8,30.91,SW,230,2.0,12.0,41,0.00,,,0.00,Wunderground v.1.15,2013-05-02 14:56:00,
2013-05-02 09:02:00,46.6,24.1,30.91,SSW,205,2.0,12.0,41,0.00,,,0.00,Wunderground v.1.15,2013-05-02 15:02:00,
2013-05-02 09:08:00,46.6,22.9,30.91,West,260,3.0,12.0,39,0.00,,,0.00,Wunderground v.1.15,2013-05-02 15:08:00,
2013-05-02 09:14:00,46.7,23.6,30.90,SSW,207,3.0,12.0,40,0.00,,,0.00,Wunderground v.1.15,2013-05-02 15:14:00,
2013-05-02 09:20:00,47.0,22.7,30.90,SSW,203,2.0,12.0,38,0.00,,,0.00,Wunderground v.1.15,2013-05-02 15:20:00,
2013-05-02 09:26:00,47.0,23.3,30.90,SSW,203,2.0,12.0,39,0.00,,,0.00,Wunderground v.1.15,2013-05-02 15:26:00,
2013-05-02 09:32:00,47.2,20.2,30.90,WNW,293,2.0,12.0,34,0.00,,,0.00,Wunderground v.1.15,2013-05-02 15:32:00,
2013-05-02 09:38:00,47.2,20.2,30.90,NW,306,3.0,12.0,34,0.00,,,0.00,Wunderground v.1.15,2013-05-02 15:38:00,
2013-05-02 09:44:00,48.0,20.2,30.89,SW,235,2.0,12.0,33,0.00,,,0.00,Wunderground v.1.15,2013-05-02 15:44:00,
2013-05-02 09:50:00,48.3,19.8,30.89,SW,228,3.0,3.0,32,0.00,,,0.00,Wunderground v.1.15,2013-05-02 15:50:00,
2013-05-02 09:56:00,48.6,20.0,30.89,SW,225,3.0,12.0,32,0.00,,,0.00,Wunderground v.1.15,2013-05-02 15:56:00,
2013-05-02 10:02:00,49.3,17.5,30.89,NNW,327,1.0,5.0,28,0.00,,,0.00,Wunderground v.1.15,2013-05-02 16:02:00,
2013-05-02 10:08:00,48.9,18.0,30.88,ESE,119,3.0,12.0,29,0.00,,,0.00,Wunderground v.1.15,2013-05-02 16:08:00,
2013-05-02 10:14:00,48.5,19.2,30.88,North,10,3.0,12.0,31,0.00,,,0.00,Wunderground v.1.15,2013-05-02 16:14:00,
2013-05-02 10:20:00,48.2,18.9,30.88,North,359,2.0,12.0,31,0.00,,,0.00,Wunderground v.1.15,2013-05-02 16:20:00,
2013-05-02 10:26:00,48.5,18.4,30.88,NW,313,2.0,12.0,30,0.00,,,0.00,Wunderground v.1.15,2013-05-02 16:26:00,
2013-05-02 10:32:00,48.8,17.9,30.88,WNW,295,2.0,4.0,29,0.00,,,0.00,Wunderground v.1.15,2013-05-02 16:32:00,
2013-05-02 10:38:00,48.8,16.2,30.88,SSW,209,3.0,12.0,27,0.00,,,0.00,Wunderground v.1.15,2013-05-02 16:38:00,
2013-05-02 10:44:00,48.7,16.2,30.88,SSW,206,3.0,12.0,27,0.00,,,0.00,Wunderground v.1.15,2013-05-02 16:44:00,
2013-05-02 10:50:00,48.5,16.0,30.88,WSW,245,3.0,12.0,27,0.00,,,0.00,Wunderground v.1.15,2013-05-02 16:50:00,
2013-05-02 10:56:00,48.3,16.7,30.88,SSW,206,4.0,12.0,28,0.00,,,0.00,Wunderground v.1.15,2013-05-02 16:56:00,
2013-05-02 11:02:00,48.3,16.7,30.87,West,260,2.0,12.0,28,0.00,,,0.00,Wunderground v.1.15,2013-05-02 17:02:00,
2013-05-02 11:08:00,48.5,15.1,30.87,NNW,332,1.0,12.0,26,0.00,,,0.00,Wunderground v.1.15,2013-05-02 17:08:00,
2013-05-02 11:14:00,48.6,15.2,30.87,WNW,295,3.0,12.0,26,0.00,,,0.00,Wunderground v.1.15,2013-05-02 17:14:00,
2013-05-02 11:20:00,48.5,19.2,30.87,SW,233,4.0,4.0,31,0.00,,,0.00,Wunderground v.1.15,2013-05-02 17:20:00,
2013-05-02 11:26:00,48.5,19.2,30.87,WSW,245,5.0,12.0,31,0.00,,,0.00,Wunderground v.1.15,2013-05-02 17:26:00,
2013-05-02 11:32:00,48.2,18.2,30.87,SW,236,6.0,9.0,30,0.00,,,0.00,Wunderground v.1.15,2013-05-02 17:32:00,
2013-05-02 11:38:00,47.9,18.7,30.87,SSW,210,6.0,12.0,31,0.00,,,0.00,Wunderground v.1.15,2013-05-02 17:38:00,
2013-05-02 11:44:00,48.2,19.7,30.87,WSW,248,4.0,12.0,32,0.00,,,0.00,Wunderground v.1.15,2013-05-02 17:44:00,
2013-05-02 11:50:00,48.8,20.9,30.86,WSW,258,5.0,12.0,33,0.00,,,0.00,Wunderground v.1.15,2013-05-02 17:50:00,
2013-05-02 11:56:00,48.9,19.5,30.85,SSW,201,6.0,12.0,31,0.00,,,0.00,Wunderground v.1.15,2013-05-02 17:56:00,
2013-05-02 12:02:00,50.0,21.3,30.85,SSW,204,5.0,12.0,32,0.00,,,0.00,Wunderground v.1.15,2013-05-02 18:02:00,
2013-05-02 12:08:00,50.5,20.9,30.85,WSW,249,4.0,12.0,31,0.00,,,0.00,Wunderground v.1.15,2013-05-02 18:08:00,
2013-05-02 12:14:00,50.5,20.2,30.84,SSW,199,3.0,7.0,30,0.00,,,0.00,Wunderground v.1.15,2013-05-02 18:14:00,
2013-05-02 12:20:00,50.4,20.1,30.84,SW,231,5.0,5.0,30,0.00,,,0.00,Wunderground v.1.15,2013-05-02 18:20:00,
2013-05-02 12:26:00,49.7,19.5,30.84,West,261,5.0,12.0,30,0.00,,,0.00,Wunderground v.1.15,2013-05-02 18:26:00,
2013-05-02 12:32:00,49.6,20.2,30.83,SW,226,4.0,12.0,31,0.00,,,0.00,Wunderground v.1.15,2013-05-02 18:32:00,
2013-05-02 12:38:00,49.3,19.1,30.83,South,189,2.0,12.0,30,0.00,,,0.00,Wunderground v.1.15,2013-05-02 18:38:00,
2013-05-02 12:44:00,49.2,19.0,30.83,SSW,210,3.0,12.0,30,0.00,,,0.00,Wunderground v.1.15,2013-05-02 18:44:00,
2013-05-02 12:50:00,50.7,21.1,30.82,South,175,4.0,4.0,31,0.00,,,0.00,Wunderground v.1.15,2013-05-02 18:50:00,
2013-05-02 12:56:00,51.7,19.6,30.82,NW,317,6.0,12.0,28,0.00,,,0.00,Wunderground v.1.15,2013-05-02 18:56:00,
2013-05-02 13:02:00,51.4,19.3,30.82,West,262,7.0,8.0,28,0.00,,,0.00,Wunderground v.1.15,2013-05-02 19:02:00,
2013-05-02 13:08:00,50.4,20.1,30.82,West,276,7.0,12.0,30,0.00,,,0.00,Wunderground v.1.15,2013-05-02 19:08:00,
2013-05-02 13:14:00,49.7,20.2,30.82,West,273,6.0,12.0,31,0.00,,,0.00,Wunderground v.1.15,2013-05-02 19:14:00,
2013-05-02 13:20:00,48.9,20.3,30.82,West,276,8.0,12.0,32,0.00,,,0.00,Wunderground v.1.15,2013-05-02 19:20:00,
2013-05-02 13:26:00,48.7,21.5,30.82,North,354,7.0,12.0,34,0.00,,,0.00,Wunderground v.1.15,2013-05-02 19:26:00,
2013-05-02 13:32:00,49.0,22.5,30.82,NW,318,7.0,12.0,35,0.00,,,0.00,Wunderground v.1.15,2013-05-02 19:32:00,
2013-05-02 13:38:00,48.8,24.3,30.81,NNE,15,9.0,12.0,38,0.00,,,0.00,Wunderground v.1.15,2013-05-02 19:38:00,
2013-05-02 13:44:00,49.5,24.3,30.80,North,359,9.0,12.0,37,0.00,,,0.00,Wunderground v.1.15,2013-05-02 19:44:00,
2013-05-02 13:50:00,49.9,24.6,30.80,NW,308,6.0,12.0,37,0.00,,,0.00,Wunderground v.1.15,2013-05-02 19:50:00,
2013-05-02 13:56:00,49.7,23.8,30.80,NNW,336,4.0,12.0,36,0.00,,,0.00,Wunderground v.1.15,2013-05-02 19:56:00,
2013-05-02 14:02:00,49.9,22.6,30.80,North,350,3.0,12.0,34,0.00,,,0.00,Wunderground v.1.15,2013-05-02 20:02:00,
2013-05-02 14:08:00,50.1,22.8,30.79,NNW,339,2.0,12.0,34,0.00,,,0.00,Wunderground v.1.15,2013-05-02 20:08:00,
2013-05-02 14:14:00,50.4,23.1,30.79,NNE,19,3.0,12.0,34,0.00,,,0.00,Wunderground v.1.15,2013-05-02 20:14:00,
2013-05-02 14:20:00,50.3,22.3,30.79,NNE,15,3.0,3.0,33,0.00,,,0.00,Wunderground v.1.15,2013-05-02 20:20:00,
2013-05-02 14:26:00,50.5,23.1,30.78,ENE,70,2.0,12.0,34,0.00,,,0.00,Wunderground v.1.15,2013-05-02 20:26:00,
2013-05-02 14:32:00,50.9,22.8,30.78,SSE,152,3.0,12.0,33,0.00,,,0.00,Wunderground v.1.15,2013-05-02 20:32:00,
2013-05-02 14:38:00,51.5,24.0,30.77,NE,53,2.0,12.0,34,0.00,,,0.00,Wunderground v.1.15,2013-05-02 20:38:00,
2013-05-02 14:44:00,52.7,22.9,30.77,NE,49,1.0,12.0,31,0.00,,,0.00,Wunderground v.1.15,2013-05-02 20:44:00,
2013-05-02 14:50:00,52.5,20.3,30.77,NW,310,2.0,12.0,28,0.00,,,0.00,Wunderground v.1.15,2013-05-02 20:50:00,
2013-05-02 14:56:00,50.8,20.4,30.77,WNW,301,4.0,12.0,30,0.00,,,0.00,Wunderground v.1.15,2013-05-02 20:56:00,
2013-05-02 15:02:00,50.9,21.3,30.76,South,181,3.0,12.0,31,0.00,,,0.00,Wunderground v.1.15,2013-05-02 21:02:00,
2013-05-02 15:08:00,51.4,21.0,30.76,NW,304,3.0,12.0,30,0.00,,,0.00,Wunderground v.1.15,2013-05-02 21:08:00,
2013-05-02 15:14:00,51.9,20.6,30.75,WNW,287,3.0,12.0,29,0.00,,,0.00,Wunderground v.1.15,2013-05-02 21:14:00,
2013-05-02 15:20:00,51.7,21.2,30.75,NW,310,4.0,4.0,30,0.00,,,0.00,Wunderground v.1.15,2013-05-02 21:20:00,
2013-05-02 15:26:00,51.7,22.8,30.75,WNW,300,3.0,12.0,32,0.00,,,0.00,Wunderground v.1.15,2013-05-02 21:26:00,
2013-05-02 15:32:00,52.1,19.9,30.74,West,275,3.0,12.0,28,0.00,,,0.00,Wunderground v.1.15,2013-05-02 21:32:00,
2013-05-02 15:38:00,52.3,20.9,30.74,WSW,241,4.0,12.0,29,0.00,,,0.00,Wunderground v.1.15,2013-05-02 21:38:00,
2013-05-02 15:44:00,52.8,20.5,30.74,NW,305,5.0,12.0,28,0.00,,,0.00,Wunderground v.1.15,2013-05-02 21:44:00,
2013-05-02 15:50:00,53.1,21.6,30.73,NNE,23,3.0,12.0,29,0.00,,,0.00,Wunderground v.1.15,2013-05-02 21:50:00,
2013-05-02 15:56:00,52.8,19.7,30.73,West,274,4.0,12.0,27,0.00,,,0.00,Wunderground v.1.15,2013-05-02 21:56:00,
2013-05-02 16:02:00,52.4,21.0,30.73,West,272,5.0,12.0,29,0.00,,,0.00,Wunderground v.1.15,2013-05-02 22:02:00,
2013-05-02 16:08:00,53.0,20.7,30.73,WNW,283,3.0,12.0,28,0.00,,,0.00,Wunderground v.1.15,2013-05-02 22:08:00,
2013-05-02 16:14:00,52.9,20.6,30.72,North,354,4.0,12.0,28,0.00,,,0.00,Wunderground v.1.15,2013-05-02 22:14:00,
2013-05-02 16:20:00,52.9,20.6,30.72,East,90,3.0,3.0,28,0.00,,,0.00,Wunderground v.1.15,2013-05-02 22:20:00,
2013-05-02 16:26:00,53.2,22.5,30.72,East,96,2.0,12.0,30,0.00,,,0.00,Wunderground v.1.15,2013-05-02 22:26:00,
2013-05-02 16:32:00,53.9,21.5,30.71,West,266,1.0,12.0,28,0.00,,,0.00,Wunderground v.1.15,2013-05-02 22:32:00,
2013-05-02 16:38:00,54.1,19.0,30.71,West,270,2.0,12.0,25,0.00,,,0.00,Wunderground v.1.15,2013-05-02 22:38:00,
2013-05-02 16:44:00,54.0,19.8,30.71,NNE,19,4.0,12.0,26,0.00,,,0.00,Wunderground v.1.15,2013-05-02 22:44:00,
2013-05-02 16:50:00,53.5,19.4,30.71,NNE,18,4.0,12.0,26,0.00,,,0.00,Wunderground v.1.15,2013-05-02 22:50:00,
2013-05-02 16:56:00,53.7,17.7,30.71,NNE,27,3.0,12.0,24,0.00,,,0.00,Wunderground v.1.15,2013-05-02 22:56:00,
2013-05-02 17:02:00,54.1,19.0,30.70,NNW,335,4.0,12.0,25,0.00,,,0.00,Wunderground v.1.15,2013-05-02 23:02:00,
2013-05-02 17:08:00,53.9,17.9,30.70,NW,305,6.0,12.0,24,0.00,,,0.00,Wunderground v.1.15,2013-05-02 23:08:00,
2013-05-02 17:14:00,54.0,18.0,30.70,WNW,299,6.0,12.0,24,0.00,,,0.00,Wunderground v.1.15,2013-05-02 23:14:00,
2013-05-02 17:20:00,54.2,18.1,30.70,NNW,346,5.0,12.0,24,0.00,,,0.00,Wunderground v.1.15,2013-05-02 23:20:00,
2013-05-02 17:26:00,54.6,18.5,30.69,NE,37,5.0,12.0,24,0.00,,,0.00,Wunderground v.1.15,2013-05-02 23:26:00,
2013-05-02 17:32:00,54.6,19.4,30.69,NW,322,7.0,12.0,25,0.00,,,0.00,Wunderground v.1.15,2013-05-02 23:32:00,
2013-05-02 17:38:00,54.4,19.3,30.69,WNW,291,7.0,12.0,25,0.00,,,0.00,Wunderground v.1.15,2013-05-02 23:38:00,
2013-05-02 17:44:00,54.8,18.6,30.69,NNW,329,5.0,12.0,24,0.00,,,0.00,Wunderground v.1.15,2013-05-02 23:44:00,
2013-05-02 17:50:00,54.5,17.4,30.69,NW,308,6.0,6.0,23,0.00,,,0.00,Wunderground v.1.15,2013-05-02 23:50:00,
2013-05-02 17:56:00,54.6,17.5,30.69,NW,309,4.0,12.0,23,0.00,,,0.00,Wunderground v.1.15,2013-05-02 23:56:00,
2013-05-02 18:02:00,54.6,19.4,30.69,ENE,63,3.0,12.0,25,0.00,,,0.00,Wunderground v.1.15,2013-05-03 00:02:00,
2013-05-02 18:08:00,53.7,18.7,30.69,NE,54,6.0,12.0,25,0.00,,,0.00,Wunderground v.1.15,2013-05-03 00:08:00,
2013-05-02 18:14:00,53.1,18.2,30.69,NE,50,6.0,12.0,25,0.00,,,0.00,Wunderground v.1.15,2013-05-03 00:14:00,
2013-05-02 18:20:00,53.1,18.2,30.68,East,87,5.0,12.0,25,0.00,,,0.00,Wunderground v.1.15,2013-05-03 00:20:00,
2013-05-02 18:26:00,53.1,19.1,30.68,NE,49,3.0,12.0,26,0.00,,,0.00,Wunderground v.1.15,2013-05-03 00:26:00,
2013-05-02 18:32:00,53.3,18.3,30.68,ESE,108,2.0,12.0,25,0.00,,,0.00,Wunderground v.1.15,2013-05-03 00:32:00,
2013-05-02 18:38:00,53.3,19.2,30.68,ESE,103,2.0,12.0,26,0.00,,,0.00,Wunderground v.1.15,2013-05-03 00:38:00,
2013-05-02 18:44:00,52.9,19.8,30.68,East,85,3.0,12.0,27,0.00,,,0.00,Wunderground v.1.15,2013-05-03 00:44:00,
2013-05-02 18:50:00,52.7,19.6,30.68,ESE,103,4.0,4.0,27,0.00,,,0.00,Wunderground v.1.15,2013-05-03 00:50:00,
2013-05-02 18:56:00,52.6,17.7,30.68,ESE,116,4.0,12.0,25,0.00,,,0.00,Wunderground v.1.15,2013-05-03 00:56:00,
2013-05-02 19:02:00,52.4,18.5,30.68,SE,129,3.0,12.0,26,0.00,,,0.00,Wunderground v.1.15,2013-05-03 01:02:00,
2013-05-02 19:08:00,52.1,19.1,30.68,ESE,118,4.0,12.0,27,0.00,,,0.00,Wunderground v.1.15,2013-05-03 01:08:00,
2013-05-02 19:14:00,51.8,18.8,30.68,SE,131,4.0,12.0,27,0.00,,,0.00,Wunderground v.1.15,2013-05-03 01:14:00,
2013-05-02 19:20:00,51.3,20.1,30.68,SE,132,4.0,4.0,29,0.00,,,0.00,Wunderground v.1.15,2013-05-03 01:20:00,
2013-05-02 19:26:00,50.6,21.0,30.68,SE,131,4.0,12.0,31,0.00,,,0.00,Wunderground v.1.15,2013-05-03 01:26:00,
2013-05-02 19:32:00,49.8,21.8,30.68,SE,136,5.0,12.0,33,0.00,,,0.00,Wunderground v.1.15,2013-05-03 01:32:00,
2013-05-02 19:38:00,49.0,21.8,30.68,SSE,168,5.0,12.0,34,0.00,,,0.00,Wunderground v.1.15,2013-05-03 01:38:00,
2013-05-02 19:44:00,48.2,23.1,30.68,SSE,160,6.0,12.0,37,0.00,,,0.00,Wunderground v.1.15,2013-05-03 01:44:00,
2013-05-02 19:50:00,47.1,22.1,30.67,SSE,149,5.0,12.0,37,0.00,,,0.00,Wunderground v.1.15,2013-05-03 01:50:00,
2013-05-02 19:56:00,46.0,22.4,30.67,SSE,160,5.0,12.0,39,0.00,,,0.00,Wunderground v.1.15,2013-05-03 01:56:00,
2013-05-02 20:02:00,44.7,22.4,30.67,SSE,166,4.0,12.0,41,0.00,,,0.00,Wunderground v.1.15,2013-05-03 02:02:00,
2013-05-02 20:08:00,44.2,22.5,30.67,SSE,160,3.0,12.0,42,0.00,,,0.00,Wunderground v.1.15,2013-05-03 02:08:00,
2013-05-02 20:14:00,44.0,22.4,30.67,SSE,166,5.0,12.0,42,0.00,,,0.00,Wunderground v.1.15,2013-05-03 02:14:00,
2013-05-02 20:20:00,43.8,22.2,30.67,South,172,6.0,6.0,42,0.00,,,0.00,Wunderground v.1.15,2013-05-03 02:20:00,
2013-05-02 20:26:00,43.6,22.0,30.67,SSE,156,5.0,12.0,42,0.00,,,0.00,Wunderground v.1.15,2013-05-03 02:26:00,
2013-05-02 20:32:00,43.1,22.1,30.67,SSE,165,5.0,12.0,43,0.00,,,0.00,Wunderground v.1.15,2013-05-03 02:32:00,
2013-05-02 20:38:00,43.1,22.1,30.67,SSE,161,5.0,12.0,43,0.00,,,0.00,Wunderground v.1.15,2013-05-03 02:38:00,
2013-05-02 20:44:00,42.8,22.4,30.67,South,173,5.0,12.0,44,0.00,,,0.00,Wunderground v.1.15,2013-05-03 02:44:00,
2013-05-02 20:50:00,42.7,22.3,30.67,SSE,166,5.0,5.0,44,0.00,,,0.00,Wunderground v.1.15,2013-05-03 02:50:00,
2013-05-02 20:56:00,42.9,22.5,30.67,SSE,162,5.0,12.0,44,0.00,,,0.00,Wunderground v.1.15,2013-05-03 02:56:00,
2013-05-02 21:02:00,43.1,22.1,30.67,South,175,5.0,12.0,43,0.00,,,0.00,Wunderground v.1.15,2013-05-03 03:02:00,
2013-05-02 21:08:00,43.1,22.1,30.67,SSE,165,6.0,12.0,43,0.00,,,0.00,Wunderground v.1.15,2013-05-03 03:08:00,
2013-05-02 21:14:00,42.9,21.9,30.67,South,178,7.0,12.0,43,0.00,,,0.00,Wunderground v.1.15,2013-05-03 03:14:00,
2013-05-02 21:20:00,43.1,22.1,30.67,South,177,7.0,12.0,43,0.00,,,0.00,Wunderground v.1.15,2013-05-03 03:20:00,
2013-05-02 21:26:00,43.1,22.1,30.67,South,174,7.0,12.0,43,0.00,,,0.00,Wunderground v.1.15,2013-05-03 03:26:00,
2013-05-02 21:32:00,43.1,22.1,30.67,South,183,7.0,12.0,43,0.00,,,0.00,Wunderground v.1.15,2013-05-03 03:32:00,
2013-05-02 21:38:00,43.3,22.3,30.67,South,181,7.0,12.0,43,0.00,,,0.00,Wunderground v.1.15,2013-05-03 03:38:00,
2013-05-02 21:44:00,43.3,21.7,30.66,South,185,7.0,12.0,42,0.00,,,0.00,Wunderground v.1.15,2013-05-03 03:44:00,
2013-05-02 21:50:00,43.4,21.8,30.66,South,182,7.0,12.0,42,0.00,,,0.00,Wunderground v.1.15,2013-05-03 03:50:00,
2013-05-02 21:56:00,42.9,21.9,30.66,South,189,9.0,12.0,43,0.00,,,0.00,Wunderground v.1.15,2013-05-03 03:56:00,
2013-05-02 22:02:00,43.0,22.0,30.66,South,180,9.0,12.0,43,0.00,,,0.00,Wunderground v.1.15,2013-05-03 04:02:00,
2013-05-02 22:06:00,42.9,21.9,30.66,South,174,7.0,12.0,43,0.00,,,0.00,Wunderground v.1.15,2013-05-03 04:06:00,
2013-05-02 22:08:00,42.7,22.3,30.66,SSE,166,7.0,12.0,44,0.00,,,0.00,Wunderground v.1.15,2013-05-03 04:08:00,
2013-05-02 22:10:00,42.4,22.0,30.66,South,172,6.0,12.0,44,0.00,,,0.00,Wunderground v.1.15,2013-05-03 04:10:00,
2013-05-02 22:12:00,42.1,22.3,30.65,South,173,6.0,12.0,45,0.00,,,0.00,Wunderground v.1.15,2013-05-03 04:12:00,
2013-05-02 22:18:00,42.0,22.2,30.65,South,183,6.0,12.0,45,0.00,,,0.00,Wunderground v.1.15,2013-05-03 04:18:00,
2013-05-02 22:24:00,42.4,22.0,30.65,South,178,7.0,12.0,44,0.00,,,0.00,Wunderground v.1.15,2013-05-03 04:24:00,
2013-05-02 22:30:00,42.3,21.9,30.65,South,177,7.0,7.0,44,0.00,,,0.00,Wunderground v.1.15,2013-05-03 04:30:00,
2013-05-02 22:36:00,42.5,22.1,30.65,South,185,7.0,12.0,44,0.00,,,0.00,Wunderground v.1.15,2013-05-03 04:36:00,
2013-05-02 22:42:00,42.8,22.4,30.64,South,183,9.0,12.0,44,0.00,,,0.00,Wunderground v.1.15,2013-05-03 04:42:00,
2013-05-02 22:48:00,43.0,22.0,30.64,South,177,9.0,12.0,43,0.00,,,0.00,Wunderground v.1.15,2013-05-03 04:48:00,
2013-05-02 22:54:00,42.9,21.9,30.64,South,186,9.0,12.0,43,0.00,,,0.00,Wunderground v.1.15,2013-05-03 04:54:00,
2013-05-02 23:00:00,42.8,21.8,30.64,South,183,9.0,12.0,43,0.00,,,0.00,Wunderground v.1.15,2013-05-03 05:00:00,
2013-05-02 23:06:00,43.0,22.0,30.64,South,185,8.0,12.0,43,0.00,,,0.00,Wunderground v.1.15,2013-05-03 05:06:00,
2013-05-02 23:12:00,42.5,22.1,30.64,South,181,7.0,12.0,44,0.00,,,0.00,Wunderground v.1.15,2013-05-03 05:12:00,
2013-05-02 23:18:00,42.4,22.0,30.64,South,189,7.0,12.0,44,0.00,,,0.00,Wunderground v.1.15,2013-05-03 05:18:00,
2013-05-02 23:24:00,41.9,22.1,30.64,SSW,194,6.0,12.0,45,0.00,,,0.00,Wunderground v.1.15,2013-05-03 05:24:00,
2013-05-02 23:30:00,41.4,21.6,30.64,South,189,6.0,6.0,45,0.00,,,0.00,Wunderground v.1.15,2013-05-03 05:30:00,
2013-05-02 23:36:00,41.1,21.9,30.64,South,179,5.0,12.0,46,0.00,,,0.00,Wunderground v.1.15,2013-05-03 05:36:00,
2013-05-02 23:42:00,39.4,21.8,30.63,South,174,4.0,12.0,49,0.00,,,0.00,Wunderground v.1.15,2013-05-03 05:42:00,
2013-05-02 23:48:00,38.6,22.0,30.63,South,189,2.0,12.0,51,0.00,,,0.00,Wunderground v.1.15,2013-05-03 05:48:00,
2013-05-02 23:54:00,37.7,21.6,30.63,SSW,193,1.0,12.0,52,0.00,,,0.00,Wunderground v.1.15,2013-05-03 05:54:00,